Weather in Malargue

Argentina     35°28′05″S   69°35′09″W
temp.,
°C
wind,
m/s
gust,
m/s
humid.,
%
clouds,
%
prec.,
mm/h
press.,
hPa
HPBL,
m
21 april, wed
wed2100:00+15s5950100 1.3 1005591
03:00+9se91081100 5.6 1010596
06:00+6ese8986100 0.4 1014475
09:00+8ese1279100 0.4 1014353
12:00+10ene1162100 0.0 1015699
15:00+13ene335577 0.0 10131264
18:00+13e43513 0.0 10121063
21:00+10nne468230 0.2 1015384
22 april, thu
thu2200:00+9ene128154 0.0 1015306
03:00+8ese22840 0.1 101542
06:00+7sw00846 0.0 101410
09:00+8wsw116874 0.0 101538
12:00+12e1140100 0.0 1013517
15:00+15ene2236100 0.0 1011758
18:00+15ene213542 0.0 1010714
21:00+12nne225253 0.0 101211
23 april, fri
fri2300:00+10nne227989 0.0 101437
03:00+9sw008198 0.0 101410
06:00+9sw117074 0.0 101410
09:00+10ssw22503 0.0 101513
12:00+14e11320 0.0 1015599
15:00+17e33240 0.0 10121070
18:00+17nne22240 0.0 1013703
21:00+14nw12350 0.0 101613
24 april, sat
sat2400:00+11nnw11778 0.1 101910
03:00+10w1181100 0.1 102010
06:00+10w1182100 0.0 102010
09:00+10nw11800 0.0 102211
12:00+13ne22610 0.0 1021777
15:00+16nne23460 0.0 10191407
18:00+17ne334117 0.0 10181687
21:00+13ne47651 0.0 1021339
25 april, sun
sun2500:00+11ne23764 0.0 102270
03:00+10ene228127 0.0 1022133
06:00+8ese228255 0.0 1021121
09:00+8ese228018 0.0 1021132
12:00+11e116810 0.0 1020632
15:00+15nne22535 0.0 10171001
18:00+16nne12430 0.0 1015940
21:00+13ene46635 0.0 1017155